User: anonymous   Login
Location: Unspecified
(0.0000°N, 0.0000°E)
Time: 20:48:58
(UTC+00:00)
Language:

ARABSAT 5B - Orbit

View from above orbital plane
View from above orbital plane
View from above satellite
View from above satellite

Ground track
Ground track

The orbit is defined by the following mean orbital elements,

1 36592U          26145.58979513 +.00000000 +00000-0 +00000-0 0 00003
2 36592   0.0636 110.9366 0002148  82.0459 292.9190  1.00271409    07
Epoch (UTC): 25 May 2026 14:09:18
Eccentricity: 0.0002148
inclination: 0.0636°
perigee height: 35778 km
apogee height: 35796 km
right ascension of ascending node: 110.9366°
argument of perigee: 82.0459°
revolutions per day: 1.00271409
mean anomaly at epoch: 292.9190°

The dashed part of the orbit path shows where the satellite is in the earth's shadow,  

DLR